FALCON 9 R/B, 54226

Orbit data source: Space-Track

FALCON 9 R/B, 54226 is space debris in HEO originally from a launch on Thu, 03 Nov 2022 UTC launched from the Air Force Eastern Test Range (AFETR). Debris objects in space refer to the collection of defunct objects orbiting the Earth. Examples of debris include non-operational satellites, rocket bodies, and fragments generated from explosions, collisions, or faulty payload assembly.

Loading next visibility...
Identifier
54226, 2022-146B
Orbit
HEO
Country
Flag of USUS
Related business
Manufacturer
SpaceX
Mission
Spacecraft
Bus & Motor
F9ST2, Unknown motor
Mass
~4,000 kg wet, ~4,000 kg dry
Launch date (UTC)
2022-11-03 (4 years ago)
Launch vehicle
Unknown
Launch site
Air Force Eastern Test Range (AFETR)
Object type
Payload
Rocket body
Debris
Shape & HBR
Cyl, 7.8 m
Radar Cross Section
39.980 m², Large (>1 m²)

Expand to show TLE details & history
Last TLE update: 2 weeks ago

TLE from 2 weeks ago
0 FALCON 9 R/B
1 54226U 22146B   26149.61625548 -.00000185  00000-0  48337-3 0  9996
2 54226  26.9265  54.9722 7968679 256.8530  12.9298  1.39821514 17442
Epoch: 2026-05-29T14:47Z
TLE epoch observation values (Epoch: 2026-05-29T14:47:24.473Z)
Latitude
-0.00002°
Longitude
-54.09751°
Altitude
8,779.737 km
Speed
6.387 km/s
True Right ascension
03h 39m 35s
True Declination
0° 00' 00"
Sunlit
Object was in daylight at epoch
Visualization orbit readout
Latitude
Unknown
Longitude
Unknown
Altitude
Unknown
Speed
Unknown
Apparent Right ascension
Unknown
Apparent Declination
Unknown
Sunlit
N/A
Visualization observer readout
Local Sidereal Time
14:08:30
Azimuth
Unknown
Elevation
Unknown
Doppler factor
Unknown
Orbital elements
Apogee altitude
54,331.115 km
Perigee altitude
484.915 km
Semi-major axis
33,786.152 km
Eccentricity
0.79687
Inclination
26.9265°
RAAN
54.9722°
Arg. of periapsis
256.853°
True anomaly
102.53804°
Mean anomaly
12.9298°
Eccentric anomaly
45.48821°
Mean motion
0.34949 °/min
Orbital period
1,030.07 mins
BSTAR
0.00048337
Loading maneuver chart data...
Computing Atmospheric mass density...
Loading historical data...
Loading historical data...
Loading historical data...
Loading historical data...
Loading historical data...
Loading historical data...
Loading historical data...
Other satellites on launch #146 in the year 2022 (2022-11-03 UTC)

Documentation

Showing up to 5 results
|